Location: Zagreb
(45.8000°N, 16.0000°E)
Time: 16:56:40
(UTC+01:00)

Tiros 1 despin weight - Pass Details

Date: 29 January 2020
Orbit: 594 x 642 km, 48.2° (Epoch: 25 February)

Event Time Altitude Azimuth Distance (km) Brightness Sun altitude
Rises 10:03:37 0° 234° (SW) 2,839 ? 20.1°
Reaches altitude 10° 10:05:54 10° 231° (SW) 1,945 ? 20.3°
Maximum altitude 10:10:17 57° 153° (SSE) 720 ? 20.7°
Drops below altitude 10° 10:14:45 10° 75° (ENE) 1,981 ? 21.1°
Sets 10:17:06 0° 71° (ENE) 2,898 ? 21.3°
